Location: Carrières
(48.9495°N, 2.0407°E)
Time: 20:31:17
(UTC+00:00)

Cosmos 1844 Rocket - Visible Passes

Search period start: 22 July 2024 00:00
Search period end: 01 August 2024 00:00
Orbit: 825 x 843 km, 71.0° (Epoch: 22 July)

Date Brightness Start Highest point End Pass type
(mag) Time Alt. Az. Time Alt. Az. Time Alt. Az.
22 Jul 4.9 02:48:25 10° NNW 02:53:19 30° NE 02:58:13 10° ESE visible
22 Jul 5.8 21:12:44 10° WNW 21:16:13 17° NW 21:19:43 10° N visible
23 Jul 5.0 02:31:02 10° NNW 02:35:50 28° NE 02:40:37 10° ESE visible
23 Jul 5.8 20:55:01 10° WNW 20:58:41 17° NW 21:02:22 10° N visible
24 Jul 5.0 02:13:38 10° NNW 02:18:20 26° NE 02:23:02 10° E visible
24 Jul 5.7 20:37:19 10° W 20:41:09 18° NW 20:45:00 10° N visible
25 Jul 5.1 01:56:16 10° N 02:00:50 25° NE 02:05:24 10° E visible
25 Jul 5.6 20:19:39 10° W 20:23:38 20° NW 20:27:39 10° N visible
26 Jul 5.1 01:38:53 10° N 01:43:20 23° NE 01:47:46 10° E visible
26 Jul 2.7 03:22:15 10° NNW 03:27:54 82° WSW 03:33:33 10° SSE visible
27 Jul 5.2 01:21:30 10° N 01:25:49 22° NE 01:30:07 10° E visible
27 Jul 2.7 03:04:49 10° NNW 03:10:28 88° WSW 03:16:08 10° SSE visible
28 Jul 5.2 01:04:08 10° N 01:08:18 21° NE 01:12:28 10° E visible
28 Jul 2.8 02:47:23 10° NNW 02:53:03 85° ENE 02:58:42 10° SSE visible
29 Jul 5.3 00:46:46 10° N 00:50:47 19° NE 00:54:48 10° E visible
29 Jul 2.8 02:29:57 10° NNW 02:35:36 79° ENE 02:41:16 10° SSE visible
30 Jul 5.3 00:29:25 10° N 00:33:16 18° NE 00:37:08 10° E visible
30 Jul 2.9 02:12:31 10° NNW 02:18:10 73° ENE 02:23:48 10° SE visible
31 Jul 5.3 00:12:03 10° N 00:15:45 17° NE 00:19:26 10° ENE visible
31 Jul 3.0 01:55:06 10° NNW 02:00:43 68° ENE 02:06:21 10° SE visible
31 Jul 3.9 03:39:51 10° NW 03:44:05 22° WSW 03:48:20 10° SSW visible
